www.pogodaiklimat.ru

Погода и климат >> Архив погоды >> Россия >> Ростовская область >> Таганрог


ПОГОДА в Таганроге

АРХИВ ПОГОДЫ в Таганроге

Время (UTC), дата Ветер
(напр.,м/с)
 
Видим.   Явления Облачность Т
(С)
Тd
(С)
f
(%)
Тe
(С)
Тes
(С)
Комфортность P
(гПа)
Po
(гПа)
Тmin
(С)
Tmax
(С)
R
(мм)
R24
(мм)
S
(см)
03 10.12 Ю 5
{10}
20 км 9/9 600 м
[Sc]
+5.6 +3.0 83 +1 +1 тепло 1016.9 1012.9 +4.8
06 10.12 В 3 20 км 6/4 600 м
[Sc Ac trans]
+5.1 +1.4 77 +2 +2 тепло 1016.6 1012.6
09 10.12 В 3 20 км ясно +9.2 +2.1 61 +7 +9 тепло 1015.3 1011.4
12 10.12 ЮВ 6 20 км 1/0
[Ci fib]
+7.2 +1.6 68 +3 +3 тепло 1012.6 1008.7
15 10.12 ЮВ 7-10
{10}
20 км 3/0
[Ac trans Ci fib]
+4.9 +1.8 80 -1 -1 по сезону 1011.4 1007.4 +9.6
18 10.12 ЮВ 7
{13}
20 км 10/0
[Ac As]
+4.5 +2.0 84 -1 -1 по сезону 1010.3 1006.4
21 10.12 ЮЗ 10-18
{18}
10 км дождь 10/10 300 м
[Frnb]
+5.3 +3.2 86 -1 -1 по сезону 1011.2 1007.2
00 11.12 ЮЗ 5-12
{18}
20 км {дождь} 6/6 600 м
[Sc]
+3.5 +0.3 80 -2 -2 по сезону 1014.5 1010.5
03 11.12 ЮЗ 4
{13}
20 км 10/10 600 м
[Sc]
+2.8 -1.5 73 -2 -2 по сезону 1018.5 1014.4 +2.5 2
06 11.12 З 3
{10}
20 км 4/0
[Ci fib]
+2.7 -3.5 64 -1 -1 по сезону 1021.7 1017.6 +2.1
09 11.12 Ю 6 20 км 9/0
[Ac lent Ci]
+3.6 +0.3 79 -2 -1 по сезону 1022.8 1018.8
12 11.12 Ю 6 20 км 9/8 600 м
[Sc Ac lent]
+4.1 +1.0 80 -1 -1 по сезону 1022.6 1018.6
15 11.12 Ю 7 20 км 9/9 600 м
[Sc]
+4.0 +1.3 83 -2 -2 по сезону 1023.5 1019.5 +5.3
18 11.12 Ю 9-11
{11}
20 км 4/4 600 м
[Sc]
+4.3 +1.7 83 -2 -2 по сезону 1023.1 1019.1
21 11.12 Ю 8-10
{11}
20 км 9/9 600 м
[Sc]
+4.2 +1.6 83 -2 -2 по сезону 1022.4 1018.3
00 12.12 Ю 9-11
{11}
20 км 8/8 600 м
[Sc]
+4.3 +1.8 84 -2 -2 по сезону 1021.6 1017.6
03 12.12 Ю 4
{11}
20 км 9/9 600 м
[Sc]
+4.4 +2.4 87 0 0 тепло 1021.6 1017.6 +4.0
06 12.12 Ю 2 20 км 9/9 600 м
[St]
+4.8 +2.8 87 +2 +2 тепло 1021.3 1017.3
09 12.12 ЮЗ 2 20 км 9/8
[Sc Ac lent Cc]
+6.9 +4.6 85 +5 +5 тепло 1020.7 1016.7
12 12.12 ЮЗ 4 20 км 9/3 600 м
[Sc Ac lent Ci]
+6.4 +4.0 85 +3 +3 тепло 1019.9 1015.9
15 12.12 ЮЗ 3 20 км 4/3 600 м
[Sc Ac trans]
+7.7 +4.9 82 +5 +5 тепло 1020.7 1016.7 +7.9
18 12.12 ЮЗ 5
{10}
20 км ясно +6.1 +4.0 86 +2 +2 тепло 1020.2 1016.2
21 12.12 ЮЗ 3 20 км ясно +6.1 +4.5 89 +3 +3 тепло 1020.4 1016.4
00 13.12 ЮЗ 2 10 км 8/8 600 м
[St]
+5.6 +4.3 91 +3 +3 тепло 1020.2 1016.2
03 13.12 ЮЗ 1 10 км 3/0
[Ci fib]
+5.1 +4.1 93 +4 +4 тепло 1019.8 1015.8 +5.1
06 13.12 ЮЗ 1 10 км 9/0
[Ac trans Ci fib]
+4.9 +4.0 94 +3 +4 тепло 1020.3 1016.3 +4.7
09 13.12 ЮЗ 2 20 км 9/0
[Ac trans Ci fib]
+7.2 +3.6 78 +5 +7 тепло 1020.0 1016.0
12 13.12 ЮЗ 1 20 км 9/0
[Ci fib]
+9.1 +5.3 77 +9 +9 тепло 1018.7 1014.8
15 13.12 СВ 1 20 км 4/3 1000 м
[Sc Ci fib]
+7.3 +5.2 87 +6 +6 тепло 1018.5 1014.6 +9.5
18 13.12 ЮВ 2 20 км ясно +6.9 +3.4 78 +5 +5 тепло 1018.0 1014.1
21 13.12 ЮЗ 2 20 км ясно +6.5 +0.7 66 +5 +5 тепло 1017.3 1013.4
00 14.12 В 2 20 км 1/0
[Ac trans]
+6.0 +1.5 73 +4 +4 тепло 1016.9 1012.9
03 14.12 В 2 20 км 1/0
[Ci fib]
+3.4 +1.3 86 0 0 тепло 1016.2 1012.2 +3.4
06 14.12 В 2 20 км 9/9 600 м
[Sc]
+2.5 +0.4 86 -1 -1 тепло 1016.6 1012.6 +2.5
09 14.12 В 3 20 км 9/9 600 м
[St]
+3.3 +0.5 82 -1 -0 по сезону 1015.9 1011.9
12 14.12 В 5 20 км 9/9 600 м
[Sc]
+5.3 +1.6 77 +1 +1 тепло 1014.8 1010.9
15 14.12 В 4 20 км 10/10 600 м
[Sc]
+4.9 +1.9 81 +1 +1 тепло 1015.1 1011.1 +5.5
18 14.12 В 3 20 км 10/10 600 м
[Sc]
+4.6 +2.7 87 +1 +1 тепло 1015.1 1011.2
21 14.12 В 3 20 км 9/9 600 м
[Sc Ac As]
+4.6 +2.6 87 +1 +1 тепло 1015.0 1011.0
00 15.12 В 3 20 км 10/10 600 м
[Sc]
+4.3 +2.1 86 +1 +1 тепло 1015.3 1011.3
03 15.12 В 3 20 км 10/10 600 м
[Sc]
+3.7 +1.9 88 -0 -0 тепло 1015.5 1011.5 +3.7
06 15.12 В 3 20 км 9/9 600 м
[Sc]
+3.3 +1.5 88 -1 -1 тепло 1016.0 1012.0 +3.3
09 15.12 В 2 10 км {морось} 10/10 300 м
[St]
+3.9 +1.7 86 +1 +1 тепло 1015.9 1011.9
12 15.12 В 3 10 км слабый дождь {морось} 10/10 300 м
[Frnb]
+4.2 +3.0 92 0 0 по сезону 1016.2 1012.2
15 15.12 В 1 1000 м в посл. час дождь 10/10 300 м
[St]
+5.0 +4.0 93 +4 +4 тепло 1017.3 1013.3 +5.1 7
18 15.12 В 1 10 км {дождь} 10/10 600 м
[St]
+4.9 +4.0 94 +3 +3 тепло 1017.9 1014.0
21 15.12 В 1 н/о н/о +5.5 +4.6 94 +4 +4 тепло 1018.7 1014.7
00 16.12 СВ 1 2000 м дымка {туман} 10/10 300 м
[St]
+5.7 +4.8 94 +4 +4 тепло 1018.9 1014.9
03 16.12 В 2 н/о н/о +5.8 +5.0 95 +3 +3 тепло 1018.4 1014.5 +4.3
06 16.12 В 3 10 км 10/10 300 м
[St]
+5.5 +4.4 93 +2 +2 тепло 1018.9 1014.9
09 16.12 В 3 10 км 9/8 600 м
[Sc Ac As]
+6.8 +3.5 79 +4 +4 тепло 1018.1 1014.1
12 16.12 В 4 20 км 9/0
[Ac As]
+8.7 +4.5 75 +6 +6 тепло 1017.3 1013.4
15 16.12 В 5 20 км 9/0
[Ac As]
+7.0 +4.2 82 +3 +3 тепло 1017.1 1013.2 +9.1
18 16.12 В 6-10
{10}
20 км 3/0
[Ac trans]
+6.8 +4.4 85 +2 +2 тепло 1017.7 1013.7
21 16.12 В 4
{10}
20 км ясно +4.8 +3.1 89 +1 +1 тепло 1017.9 1013.9

 

Местоположение метеостанции Таганрог (Ростовская область, Россия): широта 47.20 долгота 38.90 высота над уровнем моря 32 м.

В архиве по умолчанию представлена погода в Таганроге за последнюю неделю. Архивные данные за месяц целиком и за предыдущие месяцы, начиная с января 2011 года, Вы можете получить, выбрав интересующий диапазон дат из раскрывающегося списка и нажав кнопку "Ввод!".

Внимание! Время в таблицах - всемирное. Для получения местного времени необходимо прибавить поправку, которая в Таганроге равна 3 ч.

Смотрите также архив погоды в соседних городах и на ближайших метеорологических станциях:

Погода в Маргаритово (Ростовская область, Россия) (30 км)
Погода в Матвеевом Кургане (Ростовская область, Россия) (41 км)
Погода в Ейске (Краснодарский край, Россия) (65 км)
Погода в Ростове-на-Дону (Ростовская область, Россия) (70 км)
Погода в Староминская (Краснодарский край, Россия) (75 км)
Погода в Кущевской (Краснодарский край, Россия) (92 км)
Погода в Должанке (Краснодарский край, Россия) (106 км)
Погода в Мариуполе (Донецкая область, Украина) (108 км)
Погода в Зерноград (Ростовская область, Россия) (114 км)
Погода в Шахтах (Ростовская область, Россия) (117 км)

Пояснения к столбцам:

Ветер - указаны скорость ветра в м/с - средняя за 10 мин, порывы в срок и между сроками (в фигурных скобках) и направление, откуда дует ветер: С - северный, СВ - северо-восточный, В - восточный, ЮВ - юго-восточный, Ю - южный, ЮЗ - юго-западный, З - западный, СЗ - северо-западный.
Видимость - горизонтальная дальность видимости в метрах или километрах. При видимости от 1 до 10 км при отсутствии осадков обычно наблюдается дымка, при ухудшении видимости до 1 км и менее - туман. В сухую погоду видимость может ухудшаться дымом, пылью или мглою.
Явления - указаны атмосферные явления, наблюдавшиеся в срок или в последний час перед сроком; фигурными скобками обозначены явления, наблюдавшиеся между сроками (за 1-3 часа до срока); квадратными скобками обозначены град или гололедные отложения с указанием их диаметра в мм.
Облачность - указаны через наклонную черту общая и нижняя облачность в баллах и высота нижней границы облаков в метрах; квадратными скобками обозначены формы облаков: Ci - перистые, Cs - перисто-слоистые, Cc - перисто-кучевые, Ac - высококучевые, As - высокослоистые, Sc - слоисто-кучевые, Ns - слоисто-дождевые, Cu - кучевые, Cb - кучево-дождевые. Подробнее классификацию облаков см. в Атласе облаков (PDF).
T - Температура воздуха - температура, измеренная на высоте 2 м над землей.
Td - Температура точки росы - температура, при понижении до которой содержащийся в воздухе водяной пар достигнет насыщения.
f - Относительная влажность воздуха - влажноcть воздуха, измеренная на высоте 2 м над землей.
Te - Эффективная температура - температура, которую ощущает одетый по сезону человек в тени. Характеристика душности погоды. При расчете учитывается влияние влажности воздуха и скорости ветра на теплоощущения человека.
Tes - Эффективная температура на солнце - температура, которую ощущает человек, с поправкой на солнечный нагрев. Характеристика знойности погоды. Зависит от высоты солнца над горизонтом, облачности и скорости ветра. Ночью, в пасмурную погоду, а также при ветре 12 м/с и более поправка равна нулю.
P - Атмосферное давление - приведенное к уровню моря атмосферное давление.
Po - Атмосферное давление - измеренное на уровне метеостанции атмосферное давление.
Tmin - Минимальная температура - минимум температуры воздуха на высоте 2 м над землей.
Tmax - Максимальная температура - максимум температуры воздуха на высоте 2 м над землей.
R - Количество осадков - Количество выпавших осадков за период времени, мм. При наведении курсора мыши на число - период времени, за который выпало указанное количество осадков.
R24 - Количество осадков - Количество выпавших осадков за 24 часа, мм.
S - Снежный покров - Высота снежного покрова, см. При наведении курсора мыши на число - состояние снежного покрова и степень покрытия местности в баллах.